Weather History for Newport, VT

Change the Weather History Date:

Saturday, October 12, 2013

  Actual Average Record
Temperature  
Mean Temperature 56 °F -  
Max Temperature 73 °F 57 °F 83 °F (1949)
Min Temperature 40 °F 37 °F 19 °F (1956)
Degree Days  
Heating Degree Days 8    
Growing Degree Days 6 (Base 50)    
Moisture  
Dew Point 44 °F    
Average Humidity 68    
Maximum Humidity 88    
Minimum Humidity 38    
Precipitation  
Precipitation 0.00 in - - ()
Sea Level Pressure  
Sea Level Pressure 30.29 in    
Wind  
Wind Speed 2 mph (South)    
Max Wind Speed 8 mph    
Max Gust Speed -    
Visibility 10 miles    
Events      
Averages and records for this station are not official NWS values.
T = Trace of Precipitation, MM = Missing Value Source: NWS Daily Summary

Daily Weather History Graph

Daily Weather History Graph

Search for Another Location

Airport:

Trip Planner

Search our weather history database for the weather conditions in past years. The results will help you decide how hot, cold, wet, or windy it might be!

Date:

Astronomy

Oct. 12, 2013 Rise Set
Actual Time 7:00 AM EDT 6:08 PM EDT
Civil Twilight 6:31 AM EDT 6:38 PM EDT
Nautical Twilight 5:57 AM EDT 7:12 PM EDT
Astronomical Twilight 5:23 AM EDT 7:46 PM EDT
Moon 2:31 PM EDT (10/12) No Moon Set
Length of Visible Light 12h 06m
Length of Day
11h 08m
First Quarter, 58% of the Moon is Illuminated
Oct 12
First Quarter
Oct 18
Full
Oct 26
Last Quarter
Nov 3
New
Nov 10
First Quarter

Hourly Weather History & Observations

Time (EDT) Temp. Windchill Dew Point Humidity Pressure Visibility Wind Dir Wind Speed Gust Speed Precip Events Conditions
12:15 AM 47.7 °F - 42.3 °F 82% 30.21 in 10.0 mi Calm Calm - N/A   Clear
12:35 AM 46.6 °F - 41.7 °F 83% 30.21 in 10.0 mi Calm Calm - N/A   Clear
12:55 AM 44.6 °F - 39.6 °F 82% 30.21 in 10.0 mi Calm Calm - N/A   Clear
1:15 AM 45.5 °F - 41.4 °F 85% 30.22 in 10.0 mi Calm Calm - N/A   Clear
1:35 AM 45.0 °F 43.5 °F 40.1 °F 83% 30.22 in 10.0 mi SW 3.5 mph - N/A   Clear
1:55 AM 43.3 °F - 39.0 °F 85% 30.22 in 10.0 mi Calm Calm - N/A   Clear
2:15 AM 42.4 °F - 38.7 °F 86% 30.22 in 10.0 mi Calm Calm - N/A   Clear
2:35 AM 43.0 °F 40.3 °F 39.4 °F 87% 30.22 in 10.0 mi SW 4.6 mph - N/A   Clear
2:55 AM 42.4 °F 39.6 °F 38.8 °F 87% 30.22 in 10.0 mi SW 4.6 mph - N/A   Clear
3:15 AM 43.0 °F 41.3 °F 39.2 °F 86% 30.22 in 10.0 mi SSW 3.5 mph - N/A   Clear
3:35 AM 42.4 °F - 38.5 °F 86% 30.22 in 10.0 mi Calm Calm - N/A   Clear
3:55 AM 41.9 °F 39.0 °F 38.1 °F 86% 30.23 in 10.0 mi SW 4.6 mph - N/A   Clear
4:15 AM 41.2 °F 39.2 °F 37.6 °F 87% 30.24 in 10.0 mi WSW 3.5 mph - N/A   Clear
4:35 AM 41.9 °F - 38.5 °F 88% 30.25 in 10.0 mi Calm Calm - N/A   Clear
4:55 AM 41.0 °F - 37.4 °F 87% 30.25 in 10.0 mi Calm Calm - N/A   Clear
5:15 AM 41.4 °F 37.6 °F 37.8 °F 87% 30.25 in 10.0 mi SSW 5.8 mph - N/A   Clear
5:35 AM 40.8 °F 37.8 °F 37.4 °F 88% 30.25 in 10.0 mi SW 4.6 mph - N/A   Clear
5:55 AM 41.4 °F - 37.9 °F 88% 30.27 in 10.0 mi Calm Calm - N/A   Clear
6:15 AM 40.8 °F - 37.6 °F 88% 30.27 in 10.0 mi Calm Calm - N/A   Clear
6:35 AM 40.8 °F - 37.4 °F 88% 30.27 in 10.0 mi Calm Calm - N/A   Clear
6:55 AM 41.2 °F - 37.8 °F 88% 30.28 in 10.0 mi Calm Calm - N/A   Clear
7:15 AM 40.3 °F - 36.9 °F 88% 30.29 in 7.0 mi Calm Calm - N/A   Clear
7:35 AM 41.0 °F - 37.6 °F 88% 30.30 in 10.0 mi Calm Calm - N/A   Clear
7:55 AM 42.1 °F 40.2 °F 38.8 °F 88% 30.30 in 10.0 mi SW 3.5 mph - N/A   Clear
8:15 AM 43.9 °F 42.3 °F 40.6 °F 88% 30.31 in 10.0 mi SSW 3.5 mph - N/A   Clear
8:35 AM 47.3 °F - 42.6 °F 84% 30.31 in 10.0 mi Calm Calm - N/A   Clear
8:55 AM 49.3 °F - 44.2 °F 83% 30.31 in 10.0 mi Calm Calm - N/A   Clear
9:15 AM 50.4 °F - 44.2 °F 80% 30.31 in 10.0 mi SW 3.5 mph - N/A   Clear
9:35 AM 53.1 °F - 45.1 °F 74% 30.32 in 10.0 mi Calm Calm - N/A   Clear
9:55 AM 56.5 °F - 46.6 °F 69% 30.32 in 10.0 mi Calm Calm - N/A   Clear
10:15 AM 58.6 °F - 48.0 °F 68% 30.32 in 10.0 mi Calm Calm - N/A   Clear
10:35 AM 61.3 °F - 48.4 °F 62% 30.32 in 10.0 mi Calm Calm - N/A   Clear
10:55 AM 63.1 °F - 49.5 °F 61% 30.32 in 10.0 mi Calm Calm - N/A   Clear
11:15 AM 66.0 °F - 49.5 °F 55% 30.32 in 10.0 mi Calm Calm - N/A   Clear
11:35 AM 67.3 °F - 48.9 °F 52% 30.32 in 10.0 mi SSW 4.6 mph - N/A   Clear
11:55 AM 68.2 °F - 49.3 °F 51% 30.32 in 10.0 mi SE 3.5 mph - N/A   Clear
12:15 PM 69.4 °F - 49.6 °F 49% 30.31 in 10.0 mi Calm Calm - N/A   Clear
12:35 PM 69.4 °F - 48.2 °F 47% 30.31 in 10.0 mi South 4.6 mph - N/A   Clear
12:55 PM 70.9 °F - 49.1 °F 46% 30.30 in 10.0 mi ESE 6.9 mph - N/A   Clear
1:15 PM 70.7 °F - 47.1 °F 43% 30.29 in 10.0 mi ESE 5.8 mph - N/A   Clear
1:35 PM 71.6 °F - 48.2 °F 43% 30.29 in 10.0 mi Calm Calm - N/A   Clear
1:55 PM 72.5 °F - 45.9 °F 39% 30.29 in 10.0 mi Calm Calm - N/A   Clear
2:15 PM 72.5 °F - 45.9 °F 39% 30.28 in 10.0 mi Calm Calm - N/A   Clear
2:35 PM 72.7 °F - 46.0 °F 39% 30.28 in 10.0 mi Calm Calm - N/A   Clear
2:55 PM 73.0 °F - 45.9 °F 38% 30.28 in 10.0 mi SSE 8.1 mph - N/A   Clear
3:15 PM 72.7 °F - 45.3 °F 38% 30.28 in 10.0 mi Calm Calm - N/A   Clear
3:35 PM 72.5 °F - 45.3 °F 38% 30.27 in 4.0 mi South 4.6 mph - N/A   Haze
3:55 PM 70.9 °F - 46.0 °F 41% 30.27 in 10.0 mi Calm Calm - N/A   Clear
4:15 PM 72.1 °F - 47.7 °F 42% 30.27 in 10.0 mi Calm Calm - N/A   Clear
4:35 PM 71.2 °F - 44.1 °F 38% 30.28 in 10.0 mi South 3.5 mph - N/A   Clear
4:55 PM 70.2 °F - 47.8 °F 45% 30.28 in 10.0 mi Calm Calm - N/A   Clear
5:15 PM 70.0 °F - 47.1 °F 44% 30.28 in 10.0 mi Calm Calm - N/A   Clear
5:35 PM 68.4 °F - 47.5 °F 47% 30.28 in 10.0 mi SSE 4.6 mph - N/A   Clear
5:55 PM 66.9 °F - 47.1 °F 49% 30.28 in 10.0 mi Calm Calm - N/A   Clear
6:15 PM 66.2 °F - 46.8 °F 50% 30.28 in 10.0 mi Calm Calm - N/A   Clear
6:35 PM 64.9 °F - 47.8 °F 54% 30.29 in 10.0 mi Calm Calm - N/A   Clear
6:55 PM 61.9 °F - 47.3 °F 59% 30.29 in 10.0 mi South 3.5 mph - N/A   Clear
7:15 PM 62.4 °F - 46.4 °F 56% 30.30 in 10.0 mi South 5.8 mph - N/A   Clear
7:35 PM 63.0 °F - 46.2 °F 54% 30.31 in 10.0 mi South 6.9 mph - N/A   Clear
7:55 PM 61.3 °F - 46.9 °F 59% 30.32 in 10.0 mi South 4.6 mph - N/A   Clear
8:15 PM 60.4 °F - 48.2 °F 64% 30.32 in 10.0 mi South 6.9 mph - N/A   Clear
8:35 PM 58.8 °F - 48.4 °F 68% 30.32 in 10.0 mi South 8.1 mph - N/A   Clear
8:55 PM 58.1 °F - 47.5 °F 68% 30.34 in 10.0 mi South 6.9 mph - N/A   Clear
9:15 PM 56.7 °F - 47.3 °F 71% 30.34 in 10.0 mi South 5.8 mph - N/A   Clear
9:35 PM 55.9 °F - 47.3 °F 73% 30.34 in 10.0 mi South 8.1 mph - N/A   Clear
9:55 PM 55.0 °F - 46.8 °F 74% 30.35 in 10.0 mi SSE 8.1 mph - N/A   Clear
10:15 PM 54.7 °F - 46.8 °F 75% 30.36 in 10.0 mi SSE 6.9 mph - N/A   Scattered Clouds
10:35 PM 54.7 °F - 47.3 °F 76% 30.36 in 10.0 mi South 8.1 mph - N/A   Overcast
10:55 PM 54.7 °F - 47.3 °F 76% 30.36 in 10.0 mi South 6.9 mph - N/A   Overcast
11:15 PM 54.7 °F - 47.3 °F 76% 30.37 in 10.0 mi SSE 5.8 mph - N/A   Overcast
11:35 PM 54.9 °F - 47.1 °F 75% 30.37 in 10.0 mi SSE 8.1 mph - N/A   Overcast
11:55 PM 55.0 °F - 47.3 °F 75% 30.37 in 10.0 mi SSE 6.9 mph - N/A   Overcast